Location: Chaumontel
(49.1247°N, 2.4324°E)
Time: 07:20:12
(UTC+00:00)

Meteor 2-12 Rocket - Visible Passes

Search period start: 24 September 2023 00:00
Search period end: 04 October 2023 00:00
Orbit: 936 x 956 km, 82.5° (Epoch: 23 September)

Date Brightness Start Highest point End Pass type
(mag) Time Alt. Az. Time Alt. Az. Time Alt. Az.
24 Sep 7.0 02:16:38 10° ESE 02:20:14 16° ENE 02:23:51 10° NE visible
24 Sep 4.5 03:57:59 10° S 04:04:09 89° E 04:10:21 10° N visible
25 Sep 6.5 02:31:46 10° SE 02:36:32 24° E 02:41:20 10° NNE visible
25 Sep 4.5 04:14:45 10° SSW 04:20:51 64° WNW 04:27:00 10° N visible
26 Sep 5.8 02:47:27 10° SSE 02:52:56 36° E 02:58:28 10° NNE visible
26 Sep 4.8 04:31:49 10° SW 04:37:39 44° WNW 04:43:32 10° N visible
27 Sep 5.1 03:04:01 13° SSE 03:09:26 52° E 03:15:24 10° NNE visible
27 Sep 5.3 04:49:11 10° SW 04:54:33 30° WNW 04:59:57 10° N visible
28 Sep 7.0 01:39:23 10° ESE 01:42:17 14° ENE 01:45:09 10° NE visible
28 Sep 4.5 03:21:33 20° S 03:26:01 77° E 03:32:11 10° NNE visible
28 Sep 5.7 05:06:56 10° WSW 05:11:33 22° WNW 05:16:11 10° NNW visible
29 Sep 6.6 01:54:52 12° ESE 01:58:33 21° E 02:02:56 10° NE visible
29 Sep 4.3 03:38:58 25° SSW 03:42:41 74° W 03:48:52 10° N visible
30 Sep 6.0 02:12:12 22° SE 02:14:54 30° E 02:20:10 10° NNE visible
30 Sep 4.6 03:56:18 27° SW 03:59:27 51° WNW 04:05:27 10° N visible
01 Oct 5.3 02:29:27 35° SE 02:31:21 45° E 02:37:10 10° NNE visible
01 Oct 5.1 04:13:32 24° WSW 04:16:18 35° WNW 04:21:55 10° N visible
02 Oct 7.0 01:02:34 10° E 01:04:20 11° ENE 01:06:06 10° ENE visible
02 Oct 4.7 02:46:38 53° SSE 02:47:54 66° E 02:54:01 10° NNE visible
02 Oct 5.5 04:30:43 19° W 04:33:15 25° WNW 04:38:15 10° N visible
03 Oct 6.6 01:19:41 17° E 01:20:33 18° E 01:24:26 10° NE visible
03 Oct 4.3 03:03:46 70° SSW 03:04:32 86° W 03:10:44 10° N visible
03 Oct 5.9 04:47:51 14° W 04:50:19 18° WNW 04:54:20 10° NNW visible
